Time[GMT],salinity[psu](1m),sigma_t[kg/m^3](1m),conductivity[msiemens/cm](1m),temperature[C](1m)
2006-04-10 14:00,31.884,25.203,30.770,5.02
2006-04-10 15:00,31.856,25.155,30.945,5.26
2006-04-10 16:00,31.877,25.170,30.981,5.28
2006-04-10 17:00,31.896,25.187,30.979,5.26
2006-04-10 18:00,31.870,25.146,31.107,5.44
2006-04-10 19:00,31.874,25.146,31.136,5.47
2006-04-10 20:00,31.853,25.115,31.223,5.59
2006-04-10 21:00,31.848,25.119,31.164,5.53
2006-04-10 22:00,31.845,25.127,31.082,5.43
2006-04-10 23:00,31.834,25.134,30.956,5.29
2006-04-11 00:00,31.837,25.154,30.828,5.14
2006-04-11 01:00,31.838,25.161,30.777,5.07
2006-04-11 02:00,31.818,25.146,30.756,5.07
2006-04-11 03:00,31.803,25.134,30.745,5.07
2006-04-11 04:00,31.777,25.105,30.784,5.15
2006-04-11 05:00,31.750,25.081,30.782,5.17
2006-04-11 06:00,31.722,25.057,30.775,5.19
2006-04-11 07:00,31.630,24.945,30.978,5.53
2006-04-11 08:00,31.603,24.936,30.870,5.43
2006-04-11 09:00,31.629,24.962,30.844,5.38
2006-04-11 10:00,31.655,25.017,30.614,5.07
2006-04-11 11:00,31.587,24.984,30.391,4.87
2006-04-11 12:00,31.539,24.935,30.429,4.97
2006-04-11 13:00,31.605,24.976,30.574,5.08
2006-04-11 14:00,31.569,24.935,30.642,5.20
2006-04-11 15:00,31.599,24.947,30.760,5.31
2006-04-11 16:00,31.712,25.017,30.996,5.47
2006-04-11 17:00,31.641,24.960,30.945,5.48
2006-04-11 18:00,31.638,24.957,30.951,5.49
2006-04-11 19:00,31.617,24.934,30.972,5.54
2006-04-11 20:00,31.604,24.930,30.912,5.48
2006-04-11 21:00,31.537,24.849,31.060,5.73
2006-04-11 22:00,31.561,24.879,31.006,5.64
2006-04-11 23:00,31.567,24.891,30.953,5.57
2006-04-12 00:00,31.554,24.891,30.866,5.48
2006-04-12 01:00,31.535,24.871,30.885,5.53
2006-04-12 02:00,31.499,24.842,30.855,5.53
2006-04-12 03:00,31.470,24.831,30.743,5.42
2006-04-12 04:00,31.545,24.919,30.596,5.17
2006-04-12 05:00,31.620,24.976,30.679,5.19
2006-04-12 06:00,31.534,24.888,30.752,5.37
2006-04-12 07:00,31.460,24.825,30.721,5.41
2006-04-12 08:00,31.361,24.765,30.500,5.24
2006-04-12 09:00,31.353,24.745,30.590,5.36
2006-04-12 10:00,31.283,24.696,30.481,5.31
2006-04-12 11:00,31.342,24.740,30.554,5.33
2006-04-12 12:00,31.786,25.074,31.075,5.49
2006-04-12 13:00,31.860,25.119,31.239,5.60
2006-04-12 14:00,31.914,25.161,31.290,5.61
2006-04-12 15:00,31.924,25.167,31.316,5.63
2006-04-12 16:00,31.928,25.164,31.366,5.68
2006-04-12 17:00,31.914,25.145,31.408,5.75
2006-04-12 18:00,31.885,25.120,31.393,5.76
2006-04-12 19:00,31.852,25.098,31.335,5.73
2006-04-12 20:00,31.764,25.053,31.082,5.52
2006-04-12 21:00,31.748,25.035,31.108,5.57
2006-04-12 22:00,31.754,25.042,31.101,5.55
2006-04-12 23:00,31.780,25.064,31.115,5.54
2006-04-13 00:00,31.842,25.105,31.226,5.61
2006-04-13 01:00,31.878,25.127,31.300,5.66
2006-04-13 02:00,31.909,25.152,31.325,5.65
2006-04-13 04:00,31.902,25.148,31.307,5.64
2006-04-13 05:00,31.798,25.081,31.100,5.50
2006-04-13 06:00,31.693,25.023,30.826,5.29
2006-04-13 07:00,31.621,24.955,30.844,5.38
2006-04-13 08:00,31.619,24.961,30.790,5.32
2006-04-13 09:00,31.601,24.950,30.750,5.29
2006-04-13 10:00,31.614,24.958,30.775,5.31
2006-04-13 11:00,31.636,24.976,30.787,5.30
2006-04-13 12:00,31.687,25.028,30.750,5.20
2006-04-13 13:00,31.721,25.059,30.741,5.16
2006-04-13 14:00,31.736,25.066,30.795,5.20
2006-04-13 15:00,31.735,25.060,30.835,5.25
2006-04-13 16:00,31.726,25.051,30.842,5.27
2006-04-13 17:00,31.713,25.032,30.897,5.35
2006-04-13 18:00,31.714,25.013,31.044,5.53
2006-04-13 19:00,31.697,24.985,31.136,5.65
2006-04-13 20:00,31.664,24.959,31.100,5.65
2006-04-13 21:00,31.653,24.959,31.031,5.57
2006-04-13 22:00,31.647,24.959,30.993,5.53
2006-04-13 23:00,31.662,24.972,30.994,5.52
2006-04-14 00:00,31.721,25.002,31.167,5.66
2006-04-14 01:00,31.772,25.036,31.253,5.71
2006-04-14 02:00,31.750,25.027,31.174,5.64
2006-04-14 03:00,31.807,25.066,31.271,5.70
2006-04-14 04:00,31.889,25.129,31.356,5.71
2006-04-14 05:00,31.729,25.032,30.999,5.46
2006-04-14 06:00,31.547,24.875,30.938,5.58
2006-04-14 07:00,31.532,24.856,30.975,5.64
2006-04-14 08:00,31.539,24.860,30.997,5.66
2006-04-14 09:00,31.543,24.864,30.989,5.64
2006-04-14 10:00,31.551,24.875,30.963,5.60
2006-04-14 11:00,31.557,24.880,30.968,5.60
2006-04-14 12:00,31.555,24.878,30.968,5.60
2006-04-14 13:00,31.548,24.854,31.095,5.76
2006-04-14 14:00,31.494,24.788,31.216,5.97
2006-04-14 15:00,31.572,24.836,31.378,6.08
2006-04-14 16:00,31.589,24.838,31.470,6.17
2006-04-14 17:00,31.582,24.835,31.448,6.15
2006-04-14 18:00,31.582,24.846,31.368,6.05
2006-04-14 19:00,31.586,24.853,31.351,6.03
2006-04-14 20:00,31.587,24.864,31.282,5.95
2006-04-14 21:00,31.603,24.883,31.247,5.89
2006-04-14 22:00,31.625,24.895,31.303,5.93
2006-04-14 23:00,31.641,24.911,31.301,5.91
2006-04-15 00:00,31.642,24.913,31.291,5.90
2006-04-15 01:00,31.664,24.930,31.312,5.90
2006-04-15 02:00,31.662,24.912,31.419,6.03
2006-04-15 03:00,31.637,24.906,31.305,5.92
2006-04-15 04:00,31.628,24.901,31.279,5.90
2006-04-15 05:00,31.626,24.893,31.322,5.95
2006-04-15 06:00,31.619,24.896,31.262,5.89
2006-04-15 07:00,31.620,24.893,31.284,5.91
2006-04-15 08:00,31.617,24.893,31.269,5.90
2006-04-15 09:00,31.615,24.890,31.276,5.91
2006-04-15 10:00,31.614,24.888,31.283,5.92
2006-04-15 11:00,31.601,24.887,31.205,5.84
2006-04-15 12:00,31.601,24.886,31.211,5.85
2006-04-15 13:00,31.597,24.880,31.234,5.88
2006-04-15 14:00,31.588,24.877,31.193,5.84
2006-04-15 15:00,31.579,24.869,31.192,5.85
2006-04-15 16:00,31.579,24.865,31.219,5.88
2006-04-15 17:00,31.579,24.853,31.303,5.98
2006-04-15 18:00,31.575,24.832,31.423,6.13
2006-04-15 19:00,31.583,24.841,31.409,6.10
2006-04-15 20:00,31.582,24.837,31.430,6.13
2006-04-15 21:00,31.605,24.846,31.519,6.21
2006-04-15 22:00,31.602,24.852,31.458,6.14
2006-04-15 23:00,31.598,24.850,31.446,6.13
2006-04-16 00:00,31.595,24.849,31.433,6.12
2006-04-16 01:00,31.591,24.847,31.423,6.11
2006-04-16 02:00,31.584,24.841,31.418,6.11
2006-04-16 03:00,31.583,24.840,31.419,6.11
2006-04-16 04:00,31.585,24.839,31.439,6.14
2006-04-16 05:00,31.586,24.842,31.422,6.11
2006-04-16 06:00,31.582,24.840,31.418,6.11
2006-04-16 07:00,31.577,24.838,31.392,6.09
2006-04-16 08:00,31.576,24.834,31.416,6.12
2006-04-16 09:00,31.576,24.837,31.400,6.10
2006-04-16 10:00,31.582,24.845,31.382,6.07
2006-04-16 11:00,31.584,24.851,31.349,6.03
2006-04-16 12:00,31.583,24.852,31.340,6.02
2006-04-16 13:00,31.589,24.855,31.353,6.03
2006-04-16 14:00,31.582,24.842,31.401,6.09
2006-04-16 15:00,31.588,24.840,31.451,6.15
2006-04-16 16:00,31.594,24.834,31.534,6.24
2006-04-16 17:00,31.608,24.849,31.516,6.20
2006-04-16 18:00,31.648,24.866,31.655,6.32
2006-04-16 19:00,31.727,24.914,31.820,6.44
2006-04-16 20:00,31.760,24.947,31.799,6.38
2006-04-16 21:00,31.766,24.957,31.769,6.33
2006-04-16 22:00,31.658,24.842,31.876,6.58
2006-04-16 23:00,31.450,24.722,31.387,6.22
2006-04-17 00:00,31.366,24.627,31.511,6.46
2006-04-17 01:00,31.395,24.655,31.498,6.41
2006-04-17 02:00,31.476,24.734,31.469,6.29
2006-04-17 03:00,31.524,24.770,31.524,6.30
2006-04-17 04:00,31.467,24.732,31.426,6.25
2006-04-17 05:00,31.453,24.719,31.423,6.26
2006-04-17 06:00,31.443,24.714,31.402,6.24
2006-04-17 07:00,31.461,24.729,31.413,6.24
2006-04-17 08:00,31.502,24.762,31.441,6.23
2006-04-17 09:00,31.525,24.784,31.438,6.20
2006-04-17 10:00,31.494,24.760,31.408,6.20
2006-04-17 11:00,31.504,24.773,31.382,6.15
2006-04-17 12:00,31.503,24.773,31.376,6.15
2006-04-17 13:00,31.531,24.790,31.437,6.19
2006-04-17 14:00,31.521,24.756,31.601,6.40
2006-04-17 15:00,31.484,24.712,31.670,6.52
2006-04-17 16:00,31.291,24.560,31.492,6.52
2006-04-17 17:00,31.297,24.515,31.821,6.91
2006-04-17 18:00,31.264,24.437,32.121,7.30
2006-04-17 19:00,31.333,24.461,32.379,7.53
2006-04-17 20:00,31.317,24.465,32.263,7.41
2006-04-17 21:00,31.309,24.473,32.163,7.30
2006-04-17 22:00,31.312,24.518,31.898,6.98
2006-04-17 23:00,31.345,24.591,31.619,6.61
2006-04-18 00:00,31.370,24.607,31.662,6.64
2006-04-18 01:00,31.365,24.612,31.602,6.57
2006-04-18 02:00,31.348,24.613,31.492,6.45
2006-04-18 03:00,31.308,24.589,31.402,6.39
2006-04-18 04:00,31.297,24.572,31.450,6.46
2006-04-18 05:00,31.291,24.566,31.451,6.47
2006-04-18 06:00,31.288,24.557,31.496,6.53
2006-04-18 07:00,31.313,24.581,31.493,6.49
2006-04-18 08:00,31.355,24.603,31.598,6.57
2006-04-18 09:00,31.372,24.612,31.643,6.61
2006-04-18 10:00,31.387,24.622,31.672,6.63
2006-04-18 11:00,31.382,24.615,31.690,6.66
2006-04-18 12:00,31.387,24.620,31.689,6.65
2006-04-18 13:00,31.387,24.615,31.717,6.68
2006-04-18 14:00,31.380,24.599,31.778,6.76
2006-04-18 15:00,31.388,24.579,31.956,6.97
2006-04-18 16:00,31.364,24.503,32.298,7.40
2006-04-18 17:00,31.383,24.492,32.476,7.59
2006-04-18 18:00,31.316,24.492,32.086,7.20
2006-04-18 19:00,31.332,24.537,31.892,6.95
2006-04-18 20:00,31.317,24.521,31.910,6.99
2006-04-18 21:00,31.312,24.520,31.887,6.97
2006-04-18 22:00,31.277,24.483,31.907,7.03
2006-04-18 23:00,31.254,24.465,31.886,7.03
2006-04-19 00:00,31.251,24.464,31.875,7.02
2006-04-19 01:00,31.240,24.460,31.838,6.99
2006-04-19 02:00,31.234,24.457,31.823,6.98
2006-04-19 03:00,31.233,24.465,31.764,6.91
2006-04-19 04:00,31.251,24.490,31.709,6.82
2006-04-19 05:00,31.267,24.501,31.736,6.84
2006-04-19 06:00,31.276,24.508,31.748,6.84
2006-04-19 07:00,31.277,24.510,31.737,6.83
2006-04-19 08:00,31.281,24.517,31.720,6.80
2006-04-19 09:00,31.286,24.523,31.704,6.78
2006-04-19 11:00,31.290,24.528,31.696,6.76
2006-04-19 12:00,31.288,24.524,31.710,6.78
2006-04-19 13:00,31.281,24.515,31.726,6.81
2006-04-19 14:00,31.268,24.501,31.742,6.84
2006-04-19 15:00,31.266,24.502,31.718,6.82
2006-04-19 16:00,31.263,24.498,31.730,6.83
2006-04-19 17:00,31.249,24.487,31.718,6.83
2006-04-19 18:00,31.255,24.484,31.770,6.89
2006-04-19 19:00,31.248,24.474,31.798,6.93
2006-04-19 20:00,31.250,24.480,31.770,6.89
2006-04-19 21:00,31.265,24.490,31.798,6.91
2006-04-19 22:00,31.285,24.512,31.772,6.86
2006-04-19 23:00,31.302,24.529,31.761,6.83
2006-04-20 00:00,31.345,24.579,31.699,6.71
2006-04-20 01:00,31.497,24.745,31.530,6.34
2006-04-20 02:00,31.482,24.728,31.549,6.38
2006-04-20 03:00,31.508,24.756,31.518,6.31
2006-04-20 04:00,31.456,24.706,31.539,6.39
2006-04-20 05:00,31.475,24.729,31.500,6.33
2006-04-20 06:00,31.529,24.783,31.467,6.23
2006-04-20 07:00,31.548,24.801,31.465,6.21
2006-04-20 08:00,31.572,24.820,31.488,6.21
2006-04-20 09:00,31.592,24.833,31.520,6.22
2006-04-20 10:00,31.590,24.834,31.504,6.21
2006-04-20 11:00,31.584,24.822,31.550,6.27
2006-04-20 12:00,31.562,24.800,31.561,6.31
2006-04-20 13:00,31.497,24.736,31.586,6.41
2006-04-20 14:00,31.454,24.670,31.763,6.66
2006-04-20 15:00,31.419,24.618,31.893,6.86
2006-04-20 16:00,31.407,24.620,31.802,6.76
2006-04-20 17:00,31.411,24.609,31.900,6.87
2006-04-20 18:00,31.417,24.587,32.078,7.08
2006-04-20 19:00,31.425,24.560,32.296,7.33
2006-04-20 20:00,31.406,24.526,32.396,7.47
2006-04-20 21:00,31.373,24.529,32.189,7.26
2006-04-20 22:00,31.390,24.574,32.003,7.02
2006-04-20 23:00,31.388,24.561,32.077,7.11
2006-04-21 00:00,31.357,24.540,32.023,7.08
2006-04-21 01:00,31.252,24.485,31.746,6.86
2006-04-21 02:00,31.243,24.482,31.715,6.84
2006-04-21 03:00,31.220,24.467,31.672,6.81
2006-04-21 04:00,31.187,24.450,31.586,6.74
2006-04-21 05:00,31.128,24.422,31.407,6.59
2006-04-21 06:00,31.081,24.359,31.532,6.80
2006-04-21 07:00,31.040,24.331,31.468,6.76
2006-04-21 08:00,31.061,24.364,31.380,6.64
2006-04-21 09:00,31.089,24.406,31.274,6.48
2006-04-21 10:00,31.109,24.427,31.260,6.44
2006-04-21 11:00,31.144,24.457,31.271,6.41
2006-04-21 12:00,31.174,24.488,31.248,6.35
2006-04-21 13:00,31.193,24.512,31.213,6.29
2006-04-21 14:00,31.239,24.552,31.220,6.25
2006-04-21 15:00,31.294,24.586,31.337,6.33
2006-04-21 16:00,31.358,24.621,31.501,6.45
2006-04-21 17:00,31.393,24.637,31.608,6.55
2006-04-21 18:00,31.437,24.658,31.742,6.66
2006-04-21 19:00,31.397,24.605,31.848,6.83
2006-04-21 20:00,31.378,24.570,31.953,6.97
2006-04-21 21:00,31.283,24.500,31.839,6.94
2006-04-21 22:00,31.294,24.516,31.800,6.88
2006-04-21 23:00,31.343,24.562,31.799,6.83
2006-04-22 00:00,31.412,24.614,31.874,6.84
2006-04-22 01:00,31.485,24.672,31.942,6.84
2006-04-22 02:00,31.508,24.714,31.803,6.65
2006-04-22 03:00,30.912,24.231,31.342,6.75
2006-04-22 04:00,30.764,24.113,31.225,6.78
2006-04-22 05:00,30.715,24.085,31.106,6.69
2006-04-22 06:00,30.686,24.071,31.023,6.62
2006-04-22 07:00,30.780,24.179,30.885,6.34
2006-04-22 08:00,31.318,24.647,31.068,5.98
2006-04-22 09:00,31.433,24.729,31.232,6.05
2006-04-22 10:00,31.492,24.771,31.319,6.09
2006-04-22 11:00,31.547,24.812,31.385,6.11
2006-04-22 12:00,31.580,24.836,31.429,6.13
2006-04-22 13:00,31.618,24.866,31.467,6.13
2006-04-22 14:00,31.666,24.889,31.608,6.25
2006-04-22 15:00,31.574,24.799,31.638,6.39
2006-04-22 16:00,31.444,24.701,31.496,6.36
2006-04-22 17:00,31.172,24.446,31.518,6.68
2006-04-22 18:00,31.222,24.469,31.672,6.81
2006-04-22 19:00,31.117,24.312,32.043,7.37
2006-04-22 20:00,31.017,24.276,31.684,7.05
2006-04-22 21:00,30.901,24.151,31.793,7.31
2006-04-22 22:00,30.903,24.209,31.435,6.88
2006-04-22 23:00,30.521,23.879,31.275,7.11
2006-04-23 00:00,30.709,24.050,31.300,6.93
2006-04-23 01:00,30.656,24.005,31.271,6.95
2006-04-23 02:00,30.660,24.024,31.174,6.83
2006-04-23 03:00,30.396,23.795,31.068,7.00
2006-04-23 04:00,30.488,23.860,31.195,7.05
2006-04-23 05:00,30.489,23.862,31.188,7.04
2006-04-23 06:00,30.424,23.805,31.169,7.09
2006-04-23 07:00,30.419,23.783,31.279,7.23
2006-04-23 08:00,30.306,23.673,31.304,7.39
2006-04-23 09:00,30.584,23.918,31.399,7.19
2006-04-23 10:00,30.883,24.189,31.448,6.91
2006-04-23 11:00,31.114,24.395,31.498,6.72
2006-04-23 12:00,30.950,24.253,31.438,6.83
2006-04-23 13:00,31.179,24.449,31.543,6.70
2006-04-23 14:00,31.424,24.664,31.619,6.53
2006-04-23 15:00,31.499,24.720,31.708,6.55
2006-04-23 16:00,31.556,24.764,31.770,6.56
2006-04-23 17:00,31.553,24.777,31.663,6.44
2006-04-23 18:00,31.544,24.780,31.584,6.35
2006-04-23 19:00,31.565,24.812,31.497,6.23
2006-04-23 20:00,31.502,24.780,31.319,6.08
2006-04-23 21:00,31.572,24.840,31.352,6.05
2006-04-23 22:00,31.646,24.863,31.660,6.33
2006-04-23 23:00,31.581,24.842,31.392,6.08
2006-04-24 00:00,31.774,24.940,31.937,6.53
2006-04-24 01:00,31.790,24.973,31.809,6.36
2006-04-24 02:00,31.783,24.980,31.721,6.26
2006-04-24 03:00,31.776,24.985,31.642,6.17
2006-04-24 04:00,31.758,24.977,31.587,6.13
2006-04-24 05:00,31.779,24.990,31.623,6.15
2006-04-24 06:00,31.771,24.986,31.603,6.13
2006-04-24 07:00,31.766,24.982,31.601,6.13
2006-04-24 08:00,31.768,24.982,31.609,6.14
2006-04-24 09:00,31.766,24.982,31.597,6.13
2006-04-24 10:00,31.766,24.988,31.563,6.09
2006-04-24 11:00,31.756,24.992,31.471,5.99
2006-04-24 12:00,31.770,24.998,31.515,6.03
2006-04-24 13:00,31.828,25.034,31.637,6.11
2006-04-24 14:00,31.924,25.101,31.778,6.18
2006-04-24 15:00,31.889,25.090,31.635,6.04
2006-04-24 16:00,31.868,25.067,31.663,6.10
2006-04-24 17:00,,,,
2006-04-24 18:00,31.856,25.061,31.624,6.07
2006-04-24 19:00,31.900,25.088,31.721,6.13
2006-04-24 20:00,31.925,25.096,31.824,6.23
2006-04-24 21:00,31.929,25.086,31.920,6.34
2006-04-24 23:00,31.993,25.114,32.128,6.51
2006-04-25 00:00,31.963,25.096,32.064,6.47
2006-04-25 01:00,31.911,25.081,31.832,6.25
2006-04-25 02:00,31.935,25.105,31.827,6.22
2006-04-25 03:00,31.748,25.000,31.354,5.86
2006-04-25 04:00,31.652,24.924,31.273,5.86
2006-04-25 05:00,31.596,24.883,31.201,5.84
2006-04-25 06:00,31.564,24.860,31.156,5.82
2006-04-25 07:00,31.539,24.842,31.121,5.80
2006-04-25 08:00,31.572,24.868,31.153,5.81
2006-04-25 09:00,31.623,24.908,31.203,5.81
2006-04-25 10:00,31.642,24.920,31.240,5.84
2006-04-25 11:00,31.666,24.936,31.280,5.86
2006-04-25 12:00,31.757,24.992,31.475,5.99
2006-04-25 13:00,31.859,25.048,31.731,6.19
2006-04-25 14:00,31.990,25.106,32.158,6.55
2006-04-25 15:00,31.988,25.099,32.198,6.60
2006-04-25 16:00,31.397,24.631,31.669,6.61
2006-04-25 17:00,31.176,24.406,31.806,7.02
2006-04-25 18:00,31.420,24.624,31.863,6.82
2006-04-25 19:00,31.751,24.939,31.803,6.39
2006-04-25 20:00,31.844,25.030,31.759,6.24
2006-04-25 21:00,31.863,25.043,31.797,6.26
2006-04-25 22:00,31.857,25.031,31.842,6.32
2006-04-25 23:00,31.820,25.010,31.745,6.25
2006-04-26 00:00,31.796,25.019,31.535,6.02
2006-04-26 01:00,31.802,25.033,31.472,5.94
2006-04-26 02:00,31.737,24.983,31.402,5.93
2006-04-26 03:00,31.734,24.996,31.295,5.80
2006-04-26 04:00,31.819,25.067,31.340,5.77
2006-04-26 05:00,,,,
2006-04-26 06:00,31.922,25.184,31.181,5.47
2006-04-26 07:00,31.982,25.238,31.182,5.41
2006-04-26 08:00,31.865,25.125,31.230,5.59
2006-04-26 09:00,31.917,25.167,31.271,5.58
2006-04-26 10:00,31.973,25.210,31.323,5.59
2006-04-26 11:00,32.030,25.254,31.381,5.59
2006-04-26 12:00,32.039,25.235,31.583,5.82
2006-04-26 13:00,32.043,25.231,31.635,5.88
2006-04-26 14:00,32.022,25.220,31.578,5.84
2006-04-26 15:00,32.005,25.212,31.521,5.79
2006-04-26 16:00,32.030,25.230,31.554,5.80
2006-04-26 17:00,32.017,25.224,31.521,5.77
2006-04-26 18:00,32.017,25.230,31.476,5.72
2006-04-26 19:00,31.998,25.218,31.431,5.69
2006-04-26 20:00,31.978,25.204,31.398,5.67
2006-04-26 21:00,31.971,25.201,31.380,5.66
2006-04-26 22:00,31.974,25.206,31.362,5.63
2006-04-26 23:00,31.980,25.211,31.362,5.62
2006-04-27 00:00,31.994,25.217,31.416,5.67
2006-04-27 01:00,31.978,25.214,31.331,5.59
2006-04-27 02:00,31.986,25.217,31.366,5.62
2006-04-27 03:00,31.908,25.154,31.307,5.63
2006-04-27 04:00,31.881,25.131,31.285,5.64
2006-04-27 05:00,31.751,25.023,31.212,5.69
2006-04-27 06:00,31.660,24.938,31.231,5.81
2006-04-27 07:00,,,,
2006-04-27 08:00,31.589,24.868,31.263,5.92
2006-04-27 09:00,31.617,24.895,31.254,5.88
2006-04-27 10:00,31.586,24.874,31.200,5.85
2006-04-27 11:00,31.623,24.904,31.226,5.84
2006-04-27 12:00,31.666,24.938,31.264,5.84
2006-04-27 13:00,31.779,25.033,31.332,5.80
2006-04-27 14:00,31.764,25.013,31.371,5.86
2006-04-27 15:00,31.737,24.980,31.433,5.97
2006-04-27 17:00,31.646,24.878,31.561,6.22
2006-04-27 18:00,31.677,24.907,31.549,6.17
2006-04-27 19:00,31.697,24.920,31.587,6.19
2006-04-27 20:00,31.701,24.943,31.458,6.03
2006-04-27 21:00,31.717,24.951,31.500,6.07
2006-04-27 22:00,31.720,24.955,31.500,6.06
2006-04-27 23:00,31.738,24.980,31.437,5.97
2006-04-28 00:00,31.753,24.997,31.412,5.92
2006-04-28 01:00,31.743,25.001,31.320,5.82
2006-04-28 02:00,31.740,24.996,31.340,5.85
2006-04-28 03:00,31.731,24.990,31.321,5.84
2006-04-28 04:00,31.712,24.975,31.304,5.84
2006-04-28 05:00,31.677,24.953,31.234,5.79
2006-04-28 06:00,31.648,24.923,31.254,5.85
2006-04-28 07:00,31.642,24.918,31.253,5.85
2006-04-28 08:00,31.620,24.892,31.299,5.93
2006-04-28 09:00,31.587,24.860,31.305,5.97
2006-04-28 10:00,31.489,24.775,31.272,6.04
2006-04-28 11:00,31.404,24.708,31.198,6.04
2006-04-28 12:00,31.331,24.638,31.209,6.13
2006-04-28 13:00,31.294,24.592,31.291,6.27
2006-04-28 14:00,31.274,24.551,31.448,6.48
2006-04-28 15:00,31.280,24.548,31.507,6.55
2006-04-28 16:00,31.284,24.539,31.593,6.65
2006-04-28 17:00,31.290,24.536,31.646,6.70
2006-04-28 18:00,31.288,24.516,31.763,6.84
2006-04-28 19:00,31.295,24.515,31.815,6.90
2006-04-28 20:00,31.305,24.514,31.880,6.97
2006-04-28 21:00,31.316,24.521,31.901,6.98
2006-04-28 22:00,31.326,24.532,31.889,6.95
2006-04-28 23:00,31.344,24.556,31.843,6.88
2006-04-29 00:00,31.356,24.570,31.823,6.84
2006-04-29 01:00,31.345,24.566,31.782,6.81
2006-04-29 02:00,31.328,24.556,31.745,6.78
2006-04-29 03:00,31.313,24.553,31.671,6.71
2006-04-29 04:00,31.305,24.559,31.582,6.61
2006-04-29 05:00,31.309,24.568,31.550,6.57
2006-04-29 06:00,31.305,24.569,31.515,6.53
2006-04-29 07:00,31.306,24.569,31.527,6.54
2006-04-29 08:00,31.313,24.577,31.515,6.52
2006-04-29 09:00,31.321,24.589,31.484,6.47
2006-04-29 10:00,31.334,24.604,31.467,6.44
2006-04-29 11:00,31.348,24.620,31.447,6.40
2006-04-29 12:00,31.355,24.623,31.464,6.41
2006-04-29 13:00,31.359,24.623,31.491,6.44
2006-04-29 14:00,31.371,24.629,31.526,6.47
2006-04-29 15:00,31.383,24.637,31.549,6.49
2006-04-29 16:00,31.386,24.620,31.680,6.64
2006-04-29 17:00,31.407,24.625,31.771,6.72
2006-04-29 18:00,31.418,24.616,31.897,6.86
2006-04-29 19:00,31.431,24.636,31.848,6.79
2006-04-29 20:00,31.427,24.637,31.812,6.75
2006-04-29 21:00,31.424,24.633,31.822,6.77
2006-04-29 22:00,31.419,24.626,31.838,6.79
2006-04-29 23:00,31.421,24.630,31.826,6.78
2006-04-30 00:00,31.414,24.632,31.770,6.72
2006-04-30 01:00,31.389,24.623,31.679,6.63
2006-04-30 02:00,31.385,24.622,31.659,6.61
2006-04-30 03:00,31.394,24.626,31.687,6.64
2006-04-30 04:00,31.401,24.634,31.677,6.62
2006-04-30 05:00,31.415,24.648,31.671,6.60
2006-04-30 06:00,31.396,24.638,31.617,6.55
2006-04-30 07:00,31.386,24.628,31.625,6.57
2006-04-30 08:00,31.365,24.610,31.614,6.58
2006-04-30 09:00,31.375,24.619,31.618,6.58
2006-04-30 11:00,31.386,24.628,31.626,6.57
2006-04-30 12:00,31.403,24.641,31.643,6.58
2006-04-30 13:00,31.427,24.659,31.676,6.59
2006-04-30 14:00,31.417,24.627,31.818,6.77
2006-04-30 15:00,31.419,24.605,31.975,6.95
2006-04-30 16:00,31.397,24.541,32.253,7.31
2006-04-30 17:00,31.352,24.460,32.498,7.65
2006-04-30 18:00,31.261,24.384,32.438,7.68
2006-04-30 19:00,31.065,24.173,32.598,8.09
2006-04-30 20:00,31.083,24.202,32.522,7.98
2006-04-30 21:00,31.097,24.159,32.855,8.36
2006-04-30 22:00,31.065,24.107,32.976,8.54
2006-04-30 23:00,31.065,24.144,32.766,8.29
2006-05-01 00:00,31.084,24.174,32.691,8.18
2006-05-01 01:00,31.078,24.188,32.576,8.05
2006-05-01 02:00,31.085,24.217,32.449,7.89
2006-05-01 03:00,31.116,24.248,32.436,7.84
2006-05-01 04:00,31.124,24.257,32.427,7.82
2006-05-01 05:00,31.204,24.313,32.544,7.87
2006-05-01 06:00,31.353,24.485,32.347,7.47
2006-05-01 07:00,31.365,24.513,32.240,7.33
2006-05-01 08:00,31.351,24.508,32.185,7.28
2006-05-01 09:00,31.358,24.519,32.158,7.24
2006-05-01 10:00,31.353,24.503,32.238,7.34
2006-05-01 11:00,31.362,24.525,32.145,7.22
2006-05-01 12:00,31.364,24.538,32.080,7.14
2006-05-01 13:00,31.364,24.542,32.055,7.11
2006-05-01 14:00,31.368,24.551,32.016,7.06
2006-05-01 15:00,31.373,24.554,32.029,7.07
2006-05-01 16:00,31.337,24.511,32.088,7.18
2006-05-01 17:00,31.316,24.493,32.077,7.19
2006-05-01 18:00,31.300,24.481,32.063,7.19
2006-05-01 19:00,31.293,24.479,32.031,7.16
2006-05-01 20:00,31.297,24.481,32.043,7.17
2006-05-01 21:00,,,,
2006-05-01 22:00,31.302,24.486,32.039,7.16
2006-05-01 23:00,31.307,24.493,32.027,7.14
2006-05-02 00:00,31.305,24.497,31.992,7.10
2006-05-02 01:00,31.311,24.507,31.964,7.06
2006-05-02 02:00,31.319,24.521,31.917,6.99
2006-05-02 03:00,31.332,24.548,31.820,6.86
2006-05-02 04:00,31.343,24.568,31.756,6.78
2006-05-02 05:00,31.363,24.594,31.709,6.70
2006-05-02 06:00,31.353,24.589,31.681,6.68
2006-05-02 07:00,31.352,24.589,31.674,6.67
2006-05-02 08:00,31.454,24.664,31.807,6.72
2006-05-02 09:00,31.751,24.888,32.145,6.80
2006-05-02 10:00,31.787,24.921,32.140,6.75
2006-05-02 11:00,31.805,24.946,32.089,6.67
2006-05-02 12:00,31.793,24.936,32.077,6.67
2006-05-02 13:00,31.798,24.937,32.105,6.70
2006-05-02 14:00,31.832,24.976,32.058,6.61
2006-05-02 15:00,31.828,24.974,32.044,6.59
2006-05-02 16:00,31.815,24.972,31.974,6.52
2006-05-02 17:00,31.806,24.969,31.939,6.49
2006-05-02 18:00,31.818,24.978,31.951,6.49
2006-05-02 19:00,31.857,25.009,31.991,6.50
2006-05-02 20:00,31.889,25.028,32.057,6.54
2006-05-02 21:00,31.886,25.026,32.058,6.55
2006-05-02 22:00,31.921,25.053,32.092,6.55
2006-05-02 23:00,31.879,25.022,32.039,6.53
2006-05-03 00:00,31.868,25.012,32.039,6.54
2006-05-03 01:00,31.456,24.678,31.721,6.61
2006-05-03 02:00,31.414,24.663,31.567,6.47
2006-05-03 03:00,31.476,24.708,31.643,6.50
2006-05-03 05:00,31.664,24.858,31.804,6.49
2006-05-03 06:00,31.727,24.910,31.843,6.46
2006-05-03 07:00,31.690,24.879,31.825,6.48
2006-05-03 08:00,31.674,24.859,31.859,6.54
2006-05-03 09:00,31.629,24.838,31.726,6.43
2006-05-03 10:00,31.608,24.823,31.694,6.41
2006-05-03 11:00,31.612,24.825,31.701,6.42
2006-05-03 12:00,31.567,24.798,31.603,6.35